Stations météo

réclame
Mon MeteoGroup
Ahaus, Allemagne (10309): Température de l'air & dewpoint: 17.05.2018 22:00:00 - 23.05.2018 22:00:00 (CEST)Ahaus, Allemagne (10309): Température de l'air 5cm & Température de l'air -5cm: 17.05.2018 22:00:00 - 23.05.2018 22:00:00 (CEST)Ahaus, Allemagne (10309): Température de l'air -20cm & Température de l'air -100cm: 17.05.2018 22:00:00 - 23.05.2018 22:00:00 (CEST)Ahaus, Allemagne (10309): Vitesse du vent & gusts: 17.05.2018 22:00:00 - 23.05.2018 22:00:00 (CEST)Ahaus, Allemagne (10309): Direction du vent: 17.05.2018 22:00:00 - 23.05.2018 22:00:00 (CEST)Ahaus, Allemagne (10309): reduced air pressure: 17.05.2018 22:00:00 - 23.05.2018 22:00:00 (CEST)Ahaus, Allemagne (10309): visibility: 17.05.2018 22:00:00 - 23.05.2018 22:00:00 (CEST)Ahaus, Allemagne (10309): Ensoleillement: 17.05.2018 22:00:00 - 23.05.2018 22:00:00 (CEST)Ahaus, Allemagne (10309): Quantités de précipitations: 17.05.2018 22:00:00 - 23.05.2018 22:00:00 (CEST)
Date & Time tt [°C] td [°C] tt 5cm [°C] tt -5cm [°C] tt -20cm [°C] tt -100cm [°C] ff [km/h] ff [knt] fx [km/h] fx [knt] dd ppp [hPa] vv [km] sd [min] rr [mm]
23.05.2018 22:00:00 20,0 8,3 15,2 23,1 22,8 15,3 7 4 19 11 NE 1021,1 36 0 0,0
23.05.2018 21:00:00 22,3 8,0 21,0 24,8 22,9 15,3 12 7 28 15 NE 1020,6 48 36 0,0
23.05.2018 20:00:00 23,3 8,0 24,2 26,5 22,9 15,3 14 8 33 18 NE 1020,4 30 58 0,0
23.05.2018 19:00:00 23,8 7,2 27,2 27,7 22,8 15,3 18 10 39 21 ENE 1020,2 11 60 0,0
23.05.2018 18:00:00 24,1 6,6 28,2 28,4 22,5 15,3 19 10 35 19 E 1020,3 9 60 0,0
23.05.2018 17:00:00 23,3 9,0 27,2 29,0 22,1 15,3 13 7 28 15 E 1020,4 31 48 0,0
23.05.2018 16:00:00 23,7 10,2 28,9 29,5 21,6 15,2 14 8 37 20 E 1020,6 15 56 0,0
23.05.2018 15:00:00 24,2 11,4 31,0 28,9 21,0 15,2 16 8 31 17 E 1020,5 9 43 0,0
23.05.2018 14:00:00 23,2 10,2 28,1 28,5 20,4 15,2 12 6 30 16 E 1020,6 15 42 0,0
23.05.2018 13:00:00 23,1 10,2 32,6 26,5 19,8 15,2 14 7 24 13 ENE 1020,6 12 60 0,0
23.05.2018 12:00:00 21,1 10,6 28,9 23,7 19,5 15,2 11 6 19 10 NNE 1020,1 21 45 0,0
23.05.2018 11:00:00 18,9 11,6 23,2 20,8 19,3 15,2 10 5 16 8 NNE 1019,8 19 0 0,0
23.05.2018 10:00:00 17,5 11,5 20,9 19,4 19,4 15,2 11 6 16 9 NNE 1019,7 18 0 0,0
23.05.2018 09:00:00 16,1 11,9 17,2 18,2 19,5 15,2 8 5 14 7 NNE 1019,1 18 0 0,0
23.05.2018 08:00:00 15,6 12,2 15,6 18,0 19,7 15,1 8 5 16 8 NE 1018,5 18 0 0,0
23.05.2018 07:00:00 15,4 12,6 14,6 18,0 19,9 15,1 8 4 18 10 NE 1017,8 16 0 0,0
23.05.2018 06:00:00 15,4 12,8 14,4 18,4 20,2 15,1 9 5 19 11 NE 1017,4 15 0 0,1
23.05.2018 05:00:00 15,8 12,7 15,2 18,6 20,4 15,1 10 5 21 12 NE 1016,9 20 0 0,0
23.05.2018 04:00:00 16,3 12,5 15,5 18,9 20,7 15,1 11 6 21 11 NE 1016,7 24 0 0,0
23.05.2018 03:00:00 16,5 12,6 15,1 19,2 21,0 15,1 8 5 16 8 NE 1016,6 27 0 0,0
23.05.2018 02:00:00 16,9 12,4 15,6 19,7 21,3 15,1 2 1 17 9 NE 1016,7 29 0 0,0
23.05.2018 01:00:00 16,6 12,8 14,6 20,3 21,7 15,1 6 3 16 9 ENE 1016,4 30 0 0,1
23.05.2018 00:00:00 17,7 12,5 15,7 21,1 22,0 15,1 9 5 20 11 ENE 1015,9 11 0 0,0
22.05.2018 23:00:00 18,5 12,5 16,0 21,8 22,3 15,0 6 3 10 5 NNE 1015,3 37 0 0,0
22.05.2018 22:00:00 19,6 11,8 18,4 22,9 22,6 15,0 8 5 18 10 SE 1014,7 56 0 0,0
22.05.2018 21:00:00 20,6 11,9 19,8 24,1 22,9 15,0 10 5 19 10 SE 1014,1 50 0 0,0
22.05.2018 20:00:00 21,9 12,6 21,8 25,4 23,0 15,0 9 5 17 9 SE 1013,3 44 0 0,0
22.05.2018 19:00:00 22,6 12,0 23,0 26,7 23,1 15,0 9 5 21 11 SE 1013,2 39 0 0,0
22.05.2018 18:00:00 23,2 11,6 25,0 28,0 23,0 15,0 6 3 18 10 ESE 1012,8 37 0 0,0
22.05.2018 17:00:00 23,3 12,2 25,6 29,5 22,7 15,0 11 6 20 11 ESE 1012,6 19 0 0,0
22.05.2018 16:00:00 24,0 11,0 28,4 31,5 22,1 15,0 10 5 20 11 ESE 1012,7 15 59 0,0
22.05.2018 15:00:00 24,3 11,0 31,5 31,3 21,3 15,0 8 5 17 9 E 1012,6 19 60 0,0
22.05.2018 14:00:00 23,5 10,0 31,8 29,9 20,6 15,0 10 6 19 10 ENE 1012,8 16 60 0,0
22.05.2018 13:00:00 22,2 10,8 31,8 28,3 19,9 14,9 10 5 15 8 NE 1012,9 17 60 0,0
22.05.2018 12:00:00 20,9 10,4 29,3 25,7 19,4 14,9 9 5 15 8 ENE 1012,9 16 60 0,0
22.05.2018 11:00:00 20,1 11,2 24,8 22,9 19,1 14,9 5 3 13 7 E 1013,2 25 60 0,0
22.05.2018 10:00:00 18,4 12,1 21,5 20,7 19,0 14,9 5 3 11 6 ESE 1013,3 26 60 0,0
22.05.2018 09:00:00 16,5 10,9 17,7 18,6 19,0 14,9 5 3 12 6 E 1013,2 19 50 0,0
22.05.2018 08:00:00 14,0 11,3 13,2 17,2 19,3 14,9 6 3 10 5 N 1012,8 18 2 0,0
22.05.2018 07:00:00 14,2 11,6 12,9 17,4 19,6 14,9 5 3 22 12 NNW 1012,4 22 0 0,2
22.05.2018 06:00:00 13,9 13,1 13,5 18,0 19,8 14,9 10 5 18 10 E 1012,4 7 0 1,2
22.05.2018 05:00:00 13,9 12,0 13,3 18,6 20,1 14,9 3 1 8 4 SW 1012,9 13 0 1,0
22.05.2018 04:00:00 15,5 9,0 14,1 19,0 20,3 14,9 5 3 19 10 E 1012,8 38 0 0,0
22.05.2018 03:00:00 16,5 8,7 14,4 19,2 20,6 14,8 4 2 11 6 ESE 1012,9 44 0 0,0
22.05.2018 02:00:00 17,5 7,5 15,5 19,5 20,9 14,8 6 3 14 8 E 1012,5 43 0 0,0
22.05.2018 01:00:00 18,3 7,3 16,1 20,1 21,3 14,8 8 4 19 11 ESE 1012,8 45 0 0,0
22.05.2018 00:00:00 18,8 7,1 16,2 20,8 21,7 14,8 9 5 21 11 E 1013,2 47 0 0,0
21.05.2018 23:00:00 18,8 7,6 16,4 21,7 22,0 14,8 11 6 18 10 ENE 1013,4 51 0 0,0
21.05.2018 22:00:00 19,8 8,2 17,0 23,1 22,3 14,8 10 5 23 12 ENE 1013,3 43 0 0,0
21.05.2018 21:00:00 21,8 8,0 20,2 24,9 22,5 14,8 12 7 29 15 E 1013,1 51 37 0,0
21.05.2018 20:00:00 23,2 8,1 24,5 26,6 22,5 14,8 16 9 31 17 E 1012,9 26 60 0,0
21.05.2018 19:00:00 24,3 7,0 27,4 28,1 22,3 14,8 13 7 37 20 E 1013,2 30 60 0,0
21.05.2018 18:00:00 24,8 5,2 28,1 29,1 22,0 14,8 21 12 41 22 ESE 1013,5 16 60 0,0
21.05.2018 17:00:00 24,8 5,4 29,2 29,7 21,5 14,8 23 12 42 23 SE 1013,9 17 60 0,0
21.05.2018 16:00:00 24,5 7,1 30,4 29,7 21,0 14,8 20 11 42 23 ESE 1014,7 11 60 0,0
21.05.2018 15:00:00 23,9 7,9 29,3 29,4 20,4 14,8 18 10 42 23 ESE 1015,1 9 60 0,0
21.05.2018 14:00:00 23,5 7,4 29,8 28,4 19,7 14,8 19 11 40 21 E 1015,6 12 59 0,0
21.05.2018 13:00:00 23,0 9,3 29,0 27,2 19,0 14,8 20 11 45 24 E 1016,6 11 60 0,0
21.05.2018 12:00:00 22,1 9,2 27,1 25,3 18,5 14,8 16 9 34 18 ESE 1017,2 11 60 0,0
21.05.2018 11:00:00 21,1 10,1 26,1 23,1 18,0 14,7 14 8 31 17 E 1017,8 15 60 0,0
21.05.2018 10:00:00 19,6 9,2 23,9 20,7 17,8 14,7 12 7 27 15 E 1018,1 7 60 0,0
21.05.2018 09:00:00 17,5 7,7 20,4 18,4 17,7 14,7 12 6 24 13 E 1018,7 12 60 0,0
21.05.2018 08:00:00 15,7 7,2 17,4 16,5 17,8 14,7 8 4 14 8 ENE 1019,0 31 60 0,0
21.05.2018 07:00:00 13,6 5,9 12,6 15,2 18,1 14,7 7 4 11 6 ENE 1019,2 35 54 0,0
21.05.2018 06:00:00 12,1 5,4 8,3 15,1 18,4 14,7 5 3 14 8 ENE 1019,4 42 0 0,0
21.05.2018 05:00:00 12,6 5,6 9,2 15,6 18,8 14,7 7 4 16 9 ENE 1019,6 43 0 0,0
21.05.2018 04:00:00 13,2 5,7 9,1 16,1 19,2 14,7 7 4 13 7 ENE 1019,8 43 0 0,0
21.05.2018 03:00:00 13,8 5,9 8,8 16,7 19,6 14,7 6 3 9 5 ENE 1020,1 42 0 0,0
21.05.2018 02:00:00 15,4 5,7 10,9 17,6 20,0 14,7 5 3 14 8 E 1020,4 44 0 0,0
21.05.2018 01:00:00 16,4 5,4 12,7 18,4 20,4 14,7 6 3 16 9 E 1020,5 50 0 0,0
21.05.2018 00:00:00 16,4 5,1 13,2 19,3 20,8 14,7 7 4 15 8 ENE 1020,6 53 0 0,0
20.05.2018 23:00:00 17,3 4,9 13,3 20,4 21,2 14,7 9 5 18 10 ENE 1020,9 55 0 0,0
20.05.2018 22:00:00 18,4 5,4 15,0 22,0 21,5 14,7 11 6 20 11 ENE 1020,8 53 0 0,0
20.05.2018 21:00:00 20,5 6,4 19,6 24,0 21,6 14,7 12 7 28 15 ENE 1020,3 43 57 0,0
20.05.2018 20:00:00 22,1 7,5 23,4 25,9 21,6 14,7 16 9 28 15 ENE 1020,2 27 60 0,0
20.05.2018 19:00:00 22,9 8,2 27,0 27,5 21,4 14,7 14 8 29 16 ENE 1020,0 19 60 0,0
20.05.2018 18:00:00 23,5 8,2 28,2 28,5 21,0 14,7 16 9 32 17 E 1020,5 18 60 0,0
20.05.2018 17:00:00 23,7 9,7 29,2 29,1 20,5 14,7 14 8 27 15 E 1020,9 18 59 0,0
20.05.2018 16:00:00 23,1 10,2 31,1 29,0 19,9 14,7 15 8 29 15 ENE 1021,6 16 60 0,0
20.05.2018 15:00:00 22,7 10,5 29,5 27,9 19,2 14,7 12 6 23 12 E 1022,0 16 46 0,0
20.05.2018 14:00:00 21,6 10,6 30,7 27,6 18,5 14,7 14 8 30 16 ENE 1022,7 14 56 0,0
20.05.2018 13:00:00 20,8 10,1 27,5 26,1 17,8 14,7 16 9 25 13 ESE 1023,1 13 60 0,0
20.05.2018 12:00:00 19,9 10,5 26,3 23,9 17,2 14,7 12 7 24 13 E 1023,5 15 60 0,0
20.05.2018 11:00:00 18,5 8,8 24,2 21,5 16,7 14,7 10 6 23 12 E 1023,8 12 60 0,0
20.05.2018 10:00:00 16,5 8,7 22,0 19,0 16,4 14,7 15 8 22 12 ENE 1023,9 10 60 0,0
20.05.2018 09:00:00 14,9 9,7 19,3 16,5 16,4 14,7 8 5 13 7 ENE 1024,0 10 60 0,0
20.05.2018 08:00:00 12,0 8,3 13,9 14,4 16,5 14,7 3 2 19 10 NE 1023,8 7 60 0,0
20.05.2018 07:00:00 8,5 7,3 7,6 13,1 16,8 14,7 3 2 4 2 NNE 1023,5 6 28 0,0
20.05.2018 06:00:00 6,4 6,2 2,7 13,0 17,2 14,7 4 2 6 3 ENE 1023,4 4,9 0 0,0
20.05.2018 05:00:00 6,5 6,2 3,2 13,5 17,6 14,7 3 2 4 2 N 1023,4 5 0 0,0
20.05.2018 04:00:00 6,9 6,4 2,9 14,1 18,0 14,7 4 2 19 10 NNE 1023,4 4,3 0 0,0
20.05.2018 03:00:00 7,9 7,1 3,5 14,8 18,4 14,7 2 1 7 4 NE 1023,6 6 0 0,0
20.05.2018 02:00:00 8,1 7,4 3,8 15,5 18,9 14,7 4 2 7 4 N 1023,8 8 0 0,0
20.05.2018 01:00:00 8,8 7,7 4,4 16,4 19,3 14,7 3 2 6 4 NW 1023,8 10 0 0,0
20.05.2018 00:00:00 10,8 8,2 5,9 17,6 19,7 14,7 5 3 8 4 NW 1023,5 10 0 0,0
19.05.2018 23:00:00 12,5 8,4 9,2 19,0 20,1 14,7 7 4 13 7 NNW 1023,2 16 0 0,0
19.05.2018 22:00:00 14,0 8,5 11,9 20,8 20,4 14,7 7 4 14 8 NW 1022,9 20 0 0,0
19.05.2018 21:00:00 15,4 8,5 15,6 22,5 20,5 14,7 10 5 19 10 NNW 1022,3 22 28 0,0
19.05.2018 20:00:00 16,4 5,9 17,4 24,3 20,5 14,7 6 3 14 8 ENE 1021,9 22 31 0,0
19.05.2018 19:00:00 17,6 5,5 24,6 25,8 20,2 14,7 9 5 13 7 NNE 1021,9 18 55 0,0
19.05.2018 18:00:00 17,9 3,7 24,6 27,0 19,8 14,7 5 3 14 8 E 1022,1 23 59 0,0
19.05.2018 17:00:00 17,2 4,4 24,1 27,5 19,3 14,7 9 5 16 9 NW 1022,5 20 60 0,0
19.05.2018 16:00:00 16,4 4,4 25,7 27,1 18,6 14,7 8 4 18 10 NW 1022,7 21 60 0,0
19.05.2018 15:00:00 16,0 4,7 23,3 26,0 17,9 14,7 5 3 18 10 NNW 1022,9 27 49 0,0
19.05.2018 14:00:00 15,6 5,1 24,3 25,8 17,1 14,7 7 4 13 7 W 1023,2 18 59 0,0
19.05.2018 13:00:00 14,1 5,0 23,7 23,5 16,5 14,7 6 4 15 8 NNW 1023,5 21 58 0,0
19.05.2018 12:00:00 13,7 5,2 22,0 19,4 16,1 14,7 5 3 15 8 ESE 1023,5 21 20 0,0
19.05.2018 11:00:00 11,2 3,9 16,0 17,8 15,8 14,7 7 4 14 8 NW 1023,5 28 0 0,0
19.05.2018 10:00:00 10,9 4,2 15,9 16,0 15,7 14,7 5 3 12 7 E 1023,4 25 0 0,0
19.05.2018 09:00:00 9,9 4,1 12,9 14,4 15,7 14,7 7 4 19 10 ESE 1023,3 29 0 0,0
19.05.2018 08:00:00 8,8 5,7 10,1 13,3 15,8 14,7 2 1 6 3 ESE 1023,0 16 0 0,0
19.05.2018 07:00:00 7,1 5,4 7,7 12,8 16,0 14,7 3 2 8 5 S 1022,8 11 0 0,0
19.05.2018 06:00:00 5,7 4,7 6,0 12,5 16,3 14,7 3 2 4 2 S 1022,4 10 0 0,0
19.05.2018 05:00:00 5,3 4,5 4,8 12,5 16,6 14,7 3 1 5 3 SSE 1022,4 9 0 0,0
19.05.2018 04:00:00 4,8 4,2 3,6 12,6 17,0 14,7 2 1 4 2 S 1022,5 9 0 0,0
19.05.2018 03:00:00 4,9 4,4 2,1 12,9 17,4 14,7 7 4 19 10 SSE 1022,6 9 0 0,0
19.05.2018 02:00:00 5,2 4,5 1,2 13,6 17,8 14,7 3 2 19 10 S 1022,6 10 0 0,0
19.05.2018 01:00:00 6,2 4,8 1,9 14,4 18,3 14,7 0 0 19 10 N 1022,8 15 0 0,0
19.05.2018 00:00:00 7,3 5,0 2,7 15,4 18,7 14,7 3 1 10 5 WNW 1022,8 19 0 0,0
18.05.2018 23:00:00 9,3 5,0 6,9 16,5 19,1 14,7 8 4 21 11 NNW 1022,8 23 0 0,0
18.05.2018 22:00:00 10,5 5,2 8,8 17,9 19,4 14,7 11 6 24 13 NW 1022,4 27 0 0,0
18.05.2018 21:00:00 12,2 5,4 11,4 19,6 19,7 14,7 13 7 25 13 NW 1021,9 31 17 0,0
18.05.2018 20:00:00 13,7 5,6 14,9 21,2 19,8 14,7 12 7 26 14 NW 1021,9 25 37 0,0
18.05.2018 19:00:00 14,6 5,7 16,6 22,8 19,7 14,7 14 8 26 14 WNW 1021,7 27 43 0,0
18.05.2018 18:00:00 14,9 5,0 18,8 24,1 19,4 14,7 14 8 27 14 NW 1021,8 18 60 0,0
18.05.2018 17:00:00 14,7 5,2 18,6 24,6 19,1 14,7 16 9 29 16 NW 1021,8 19 54 0,0
18.05.2018 16:00:00 14,5 5,6 22,3 24,5 18,6 14,7 17 9 28 15 N 1022,0 14 43 0,0
18.05.2018 15:00:00 14,1 5,1 20,5 24,6 18,1 14,7 16 8 30 16 NW 1022,3 15 41 0,0
18.05.2018 14:00:00 13,8 4,8 17,8 23,6 17,6 14,7 18 10 27 15 NNW 1022,6 17 38 0,0
18.05.2018 13:00:00 13,3 4,7 19,6 22,0 17,1 14,7 12 7 28 15 NNW 1022,9 16 38 0,0
18.05.2018 12:00:00 11,8 4,2 18,1 19,5 16,8 14,7 13 7 22 12 NW 1023,1 16 21 0,0
18.05.2018 11:00:00 11,1 4,3 16,9 17,6 16,7 14,7 12 6 24 13 NW 1023,2 14 8 0,0
18.05.2018 10:00:00 10,1 4,1 14,5 16,2 16,7 14,7 11 6 21 11 NW 1023,0 28 2 0,0
18.05.2018 09:00:00 9,3 4,0 11,2 15,1 16,8 14,7 12 6 22 12 NW 1023,1 14 1 0,0
18.05.2018 08:00:00 8,9 4,1 9,8 14,4 16,9 14,7 13 7 18 10 NW 1022,9 27 0 0,0
18.05.2018 07:00:00 8,2 3,9 8,3 13,9 17,2 14,6 10 5 15 8 NW 1022,5 17 0 0,0
18.05.2018 06:00:00 8,0 3,6 7,1 14,2 17,5 14,6 8 5 23 12 NW 1022,2 24 0 0,0
18.05.2018 05:00:00 8,4 3,8 8,0 14,7 17,8 14,6 10 5 25 14 NW 1022,2 24 0 0,0
18.05.2018 04:00:00 8,7 3,7 8,6 15,2 18,1 14,6 12 6 20 11 NNW 1022,3 26 0 0,0
18.05.2018 03:00:00 9,1 4,3 9,0 15,6 18,4 14,6 12 7 23 12 NNW 1022,4 26 0 0,0
18.05.2018 02:00:00 9,3 4,9 9,3 16,0 18,7 14,6 9 5 22 12 NNW 1022,5 25 0 0,0
18.05.2018 01:00:00 9,4 5,1 9,5 16,5 19,1 14,6 12 7 26 14 NW 1022,7 22 0 0,0
18.05.2018 00:00:00 9,9 5,5 9,9 17,2 19,4 14,6 12 6 22 12 NW 1022,7 20 0 0,0
17.05.2018 23:00:00 10,4 5,8 10,5 17,9 19,8 14,6 12 6 25 13 NNW 1022,7 21 0 0,0
17.05.2018 22:00:00 10,6 5,6 10,7 18,8 20,2 14,6 16 9 29 16 NNW 1022,5 19 0 0,0

tt = Température de l'air
td = dewpoint
tt 5cm = Température de l'air 5cm
tt -5cm = Température de l'air -5cm
tt -20cm = Température de l'air -20cm
tt -100cm = Température de l'air -100cm
ff = Vitesse du vent
fx = gusts
dd = Direction du vent
ppp = reduced air pressure
vv = visibility
sd = Ensoleillement
rr = Quantités de précipitations

stations d'obs. à proximité